315P/LONEOS (2016)

Japanese version
Home page
Updated on February 7, 2017

---------------------------------------------------------------------

* Profile

Designation 315P/2013 V6
Recovery Date November 6, 2013
Magnitude 21.6 mag
Recoverer M. Micheli, Y. Fernandez, C. Lisse, H. Weaver (New Mexico)

* Pictures

* Orbital Elements

Epoch 2016 Nov. 28.0 TT = JDT 2457720.5
T 2016 Dec. 6.82592 TT                                  MPCW
q   2.4204106            (2000.0)            P               Q
n   0.08780389     Peri.   67.18915     -0.68638601     -0.66768425
a   5.0133367      Node    69.55186     +0.50163378     -0.72163086
e   0.5172057      Incl.   17.91493     +0.52653376     -0.18288421
P  11.23
From 802 observations 2004 Nov. 3-2016 Nov. 10, mean residual 0".6.

* Finding Charts

* Magnitudes Graph

        m1 = 11.0 + 5 log d + 10.0 log r  [    ,-300]  (             - 2016 Feb. 10)
        m1 =  3.2 + 5 log d + 25.0 log r  [-300,    ]  (2016 Feb. 10 -             )

---------------------------------------------------------------------

The orbital elements are published on M.P.E.C. 2016-V116.
The charts are made with StellaNavigator Ver.8 (AstroArts).
The magnitudes graphs are made with Comet for Windows.

---------------------------------------------------------------------

Copyright(C) Seiichi Yoshida (comet@aerith.net). All rights reserved.